YAOGAN-30 G (43081 NORAD) Tracking and Keplerian Element Data

This shows tracking and keplerian element data for the satellite.

Feedback or suggestion? Click here.




ElementValue
Catalog43081
NameYAOGAN-30 G
Epoch Orbit433
Epoch Day23.79870129
Epoch Year2018
RAAN192.5735
Inclination34.9953
Eccentricity0.0005372
Argument of Perigee342.1958
Mean Anonmoly17.8552
Mean Motion14.89463015
Decay Rate1.11E-06
L11 43081U 17085A 18023.79870129 .00000111 00000-0 14196-4 0 9992
L22 43081 34.9953 192.5735 0005372 342.1958 17.8552 14.89463015 4331

Live tracking and technical data element details for YAOGAN-30 G (NORAD 43081). YAOGAN-30 G can be tracked NOW for your location showing map with azimuth and elevation plus other details from your city location.

Track the satellite on the map from your city or location and see movement details for azimuth, elevation, latitude, longitude, range, height, and movement on the map or in text.







IsCatalogInMostPopularTable: catalog: 43081, numindb: 146
Update: records affected: 1



GetName: 43081 YAOGAN-30 G

Hit Count: updated at: Fri, 16 Nov 2018 10:10:59 GMT